STARLINK-34393, 64724

Orbit data source: Space-Track

STARLINK-34393, 64724 is a payload satellite owned by SpaceX/Seattle (US) in LEO that was launched on Wed, 02 Jul 2025 UTC via an FALCON 9 launch vehicle from the Air Force Eastern Test Range (AFETR). Payload-class satellites include a variety of spacecraft equipped with specific instruments for various scientific and technological missions. These include communications satellites like Starlink; space stations such as the ISS; scientific satellites like the Hubble; Earth observation satellites from companies like Planet Labs, Umbra, and HawkEye 360; GPS; miniature CubeSats for education and research; and military/defense satellites.

Loading next visibility...
Identifier
64724, 2025-144A
Orbit
LEO
Last TLE update
20 hours ago
Origin
Manufacturer
SpaceX/Seattle
Mission
Operational spacecraft
Bus & Motor
STARLINK V2MO, Unknown motor
Mass
575 kg wet, ~530 kg dry
Launch date (UTC)
2025-07-02 (1 week ago)
Launch vehicle
FALCON 9
Launch site
Air Force Eastern Test Range (AFETR)
Object type
Payload
Rocket body
Debris
Shape & HBR
Unknown
Radar Cross Section
RCS unknown

Expand to show TLE details & history

TLE from 20 hours ago
0 STARLINK-34393
1 64724U 25144A   25191.66668981 -.01088963  00000-0 -45278-2 0  9992
2 64724  53.1543 231.7862 0000865  67.2671 356.8574 15.87571188  2576
Epoch: 2025-07-10T16:00Z
TLE epoch observation values (Epoch: 2025-07-10T16:00:01.999Z)
Latitude
46.20284°
Longitude
113.94119°
Altitude
313.453 km
Speed
7.726 km/s
True Right ascension
18h 51m 07s
True Declination
46° 01' 10"
Sunlit
Object was in full shadow at epoch
Visualization orbit readout
Latitude
33.43587°
Longitude
88.29688°
Altitude
316.215 km
Speed
7.723 km/s
Apparent Right ascension
14h 42m 47s
Apparent Declination
-2° 50' 34"
Sunlit
Object is in full shadow
Visualization observer readout
Local Sidereal Time
23:52:03
Azimuth
302.601° NW
Elevation
-36.508°
Doppler factor
1
Orbital elements
Apogee altitude
309.937 km
Perigee altitude
308.78 km
Semi-major axis
6,687.495 km
Eccentricity
0.00009
Inclination
53.1543°
RAAN
231.7862°
Arg. of periapsis
67.2671°
True anomaly
Unknown
Mean anomaly
356.8574°
Eccentric anomaly
Unknown
Mean motion
3.9687 °/min
Orbital period
90.71 mins
BSTAR
-0.0045278
Loading maneuver chart data...
Loading SW <> Apogee altitude chart data...
Loading historical data...
Loading historical data...
Loading historical data...
Loading historical data...
Loading historical data...
Loading historical data...
Loading historical data...

STARLINK-34393 Visibility forecast

Observer location: undefined°, undefined°

Span
Click to sort rows by Start time (UTC) header in descending order
Start Az.
Max El. time (UTC)
Max El. Az.
Max El.
End time (UTC)
End Az.
4 mins2025-07-11 11:51:59.486Z324.132° NNW2025-07-11 11:53:59.486Z25.06° NE34.71°2025-07-11 11:55:59.486Z106.225° ESE
|